When you browse on this site, cookies collect data to enhance your experience and personalize the content and advertising you see.
Visit our Privacy Policy to learn more. By continuing to use the site, you agree to this use of cookies and data.
  • In Hungary
  • List of Countries
  • For 7 days
  • Water Temperature
  • Weather Map
  • News
  • Weather Widgets
  • user-avatar
    Login

    Hourly Weather Cvetyn

    Today, 21 October, Monday

    Time Temperature Precipitation Wind Pressure Humidity
    00:00 +11°C° 0 mm 3 mps 753 mmHg 87%
    01:00 +11°C° 0 mm 3 mps 753 mmHg 88%
    02:00 +10°C° 0 mm 3 mps 753 mmHg 90%
    03:00 +10°C° 0 mm 3 mps 753 mmHg 89%
    04:00 +10°C° 0 mm 3 mps 753 mmHg 89%
    05:00 +10°C° 0 mm 3 mps 753 mmHg 88%
    06:00 +10°C° 0 mm 4 mps 753 mmHg 85%
    07:00 +11°C° 0 mm 4 mps 753 mmHg 81%
    08:00 +11°C° 0 mm 4 mps 753 mmHg 78%
    09:00 +12°C° 0 mm 4 mps 753 mmHg 74%
    10:00 +14°C° 0 mm 5 mps 753 mmHg 70%
    11:00 +15°C° 0 mm 5 mps 753 mmHg 66%
    12:00 +15°C° 0 mm 5 mps 752 mmHg 66%
    13:00 +16°C° 0 mm 5 mps 752 mmHg 65%
    14:00 +16°C° 0 mm 5 mps 752 mmHg 65%
    15:00 +15°C° 0 mm 5 mps 752 mmHg 69%
    16:00 +14°C° 0 mm 4 mps 752 mmHg 72%
    17:00 +13°C° 0 mm 4 mps 751 mmHg 76%
    18:00 +13°C° 0 mm 4 mps 752 mmHg 79%
    19:00 +12°C° 0 mm 3 mps 752 mmHg 81%
    20:00 +12°C° 0 mm 3 mps 752 mmHg 84%
    21:00 +11°C° 0 mm 3 mps 752 mmHg 86%
    22:00 +11°C° 0 mm 3 mps 752 mmHg 88%
    23:00 +12°C° 0 mm 2 mps 752 mmHg 90%

    Tomorrow, 22 October, Tuesday

    Time Temperature Precipitation Wind Pressure Humidity
    00:00 +12°C° 0 mm 2 mps 752 mmHg 91%
    01:00 +12°C° 0 mm 2 mps 752 mmHg 92%
    02:00 +12°C° 0 mm 2 mps 752 mmHg 93%
    03:00 +12°C° 0 mm 2 mps 752 mmHg 94%
    04:00 +10°C° 0 mm 2 mps 752 mmHg 94%
    05:00 +11°C° 0 mm 1 mps 752 mmHg 95%
    06:00 +12°C° 0 mm 1 mps 753 mmHg 94%
    07:00 +12°C° 0 mm 1 mps 753 mmHg 93%
    08:00 +13°C° 0 mm 1 mps 753 mmHg 92%
    09:00 +13°C° 0 mm 1 mps 753 mmHg 89%
    10:00 +14°C° 0 mm 1 mps 753 mmHg 85%
    11:00 +15°C° 0 mm 1 mps 754 mmHg 82%
    12:00 +16°C° 0 mm 1 mps 754 mmHg 81%
    13:00 +16°C° 0 mm 1 mps 754 mmHg 80%
    14:00 +15°C° 0 mm 0 mps 754 mmHg 79%
    15:00 +15°C° 0 mm 1 mps 754 mmHg 82%
    16:00 +15°C° 0 mm 1 mps 753 mmHg 84%
    17:00 +14°C° 0 mm 1 mps 753 mmHg 87%
    18:00 +14°C° 0 mm 1 mps 753 mmHg 88%
    19:00 +13°C° 0 mm 1 mps 753 mmHg 89%
    20:00 +12°C° 0 mm 0 mps 753 mmHg 91%
    21:00 +13°C° 0 mm 1 mps 753 mmHg 92%
    22:00 +13°C° 0 mm 2 mps 753 mmHg 92%
    23:00 +12°C° 0 mm 3 mps 752 mmHg 93%

    Day after tomorrow, 23 October, Wednesday

    Time Temperature Precipitation Wind Pressure Humidity
    00:00 +11°C° 0 mm 3 mps 752 mmHg 93%
    01:00 +11°C° 0 mm 3 mps 752 mmHg 93%
    02:00 +12°C° 0 mm 2 mps 752 mmHg 93%
    03:00 +11°C° 0 mm 3 mps 752 mmHg 93%
    04:00 +11°C° 0 mm 3 mps 752 mmHg 93%
    05:00 +11°C° 0 mm 3 mps 752 mmHg 93%
    06:00 +11°C° 0 mm 3 mps 752 mmHg 91%
    07:00 +12°C° 0 mm 3 mps 751 mmHg 90%
    08:00 +12°C° 0 mm 3 mps 751 mmHg 88%
    09:00 +13°C° 0 mm 4 mps 751 mmHg 84%
    10:00 +14°C° 0 mm 4 mps 751 mmHg 79%
    11:00 +17°C° 0 mm 4 mps 750 mmHg 75%
    12:00 +17°C° 0 mm 4 mps 750 mmHg 74%
    13:00 +17°C° 0 mm 5 mps 750 mmHg 72%
    14:00 +17°C° 0 mm 5 mps 750 mmHg 70%
    15:00 +17°C° 0 mm 4 mps 750 mmHg 76%
    16:00 +15°C° 0 mm 4 mps 750 mmHg 81%
    17:00 +14°C° 0 mm 3 mps 749 mmHg 87%
    18:00 +13°C° 0 mm 3 mps 750 mmHg 89%
    19:00 +14°C° 0 mm 2 mps 750 mmHg 90%
    20:00 +14°C° 0 mm 2 mps 750 mmHg 92%
    21:00 +13°C° 0 mm 2 mps 750 mmHg 93%
    22:00 +13°C° 0 mm 2 mps 750 mmHg 94%
    23:00 +12°C° 0 mm 2 mps 751 mmHg 95%

    24 October, Thursday

    Time Temperature Precipitation Wind Pressure Humidity
    00:00 +12°C° 0 mm 2 mps 751 mmHg 95%
    01:00 +10°C° 0 mm 2 mps 751 mmHg 95%
    02:00 +10°C° 0 mm 2 mps 751 mmHg 95%
    03:00 +9°C° 0 mm 2 mps 751 mmHg 95%
    04:00 +9°C° 0 mm 2 mps 751 mmHg 95%
    05:00 +8°C° 0 mm 2 mps 752 mmHg 95%
    06:00 +9°C° 0 mm 2 mps 752 mmHg 93%
    07:00 +9°C° 0 mm 2 mps 752 mmHg 91%
    08:00 +9°C° 0 mm 2 mps 752 mmHg 89%
    09:00 +10°C° 0 mm 2 mps 752 mmHg 84%
    10:00 +12°C° 0 mm 2 mps 752 mmHg 79%
    11:00 +13°C° 0 mm 2 mps 752 mmHg 75%
    12:00 +13°C° 0 mm 2 mps 752 mmHg 73%
    13:00 +14°C° 0 mm 2 mps 752 mmHg 72%
    14:00 +14°C° 0 mm 2 mps 752 mmHg 71%
    15:00 +13°C° 0 mm 2 mps 752 mmHg 72%
    16:00 +13°C° 0 mm 2 mps 752 mmHg 74%
    17:00 +12°C° 0 mm 1 mps 752 mmHg 75%
    18:00 +12°C° 0 mm 1 mps 753 mmHg 75%
    19:00 +12°C° 0 mm 1 mps 753 mmHg 75%
    20:00 +12°C° 0 mm 1 mps 753 mmHg 75%
    21:00 +12°C° 0 mm 1 mps 753 mmHg 76%
    22:00 +12°C° 0 mm 1 mps 753 mmHg 77%
    23:00 +11°C° 0 mm 1 mps 753 mmHg 77%

    25 October, Friday

    Time Temperature Precipitation Wind Pressure Humidity
    00:00 +11°C° 0 mm 1 mps 753 mmHg 79%
    01:00 +11°C° 0 mm 1 mps 753 mmHg 81%
    02:00 +10°C° 0 mm 1 mps 753 mmHg 82%
    03:00 +9°C° 0 mm 2 mps 753 mmHg 84%
    04:00 +8°C° 0 mm 2 mps 753 mmHg 85%
    05:00 +8°C° 0 mm 2 mps 753 mmHg 87%
    06:00 +8°C° 0 mm 2 mps 753 mmHg 86%
    07:00 +9°C° 0 mm 2 mps 754 mmHg 85%
    08:00 +9°C° 0 mm 2 mps 754 mmHg 84%
    09:00 +12°C° 0 mm 2 mps 754 mmHg 80%
    10:00 +13°C° 0 mm 2 mps 754 mmHg 75%
    11:00 +14°C° 0 mm 2 mps 754 mmHg 70%
    12:00 +15°C° 0 mm 2 mps 754 mmHg 69%
    13:00 +15°C° 0 mm 2 mps 753 mmHg 68%
    14:00 +16°C° 0 mm 2 mps 753 mmHg 66%
    15:00 +15°C° 0 mm 2 mps 753 mmHg 72%
    16:00 +14°C° 0 mm 1 mps 753 mmHg 78%
    17:00 +13°C° 0 mm 1 mps 753 mmHg 84%
    18:00 +12°C° 0 mm 1 mps 753 mmHg 85%
    19:00 +12°C° 0 mm 2 mps 753 mmHg 87%
    20:00 +12°C° 0 mm 2 mps 753 mmHg 89%
    21:00 +12°C° 0 mm 2 mps 753 mmHg 90%
    22:00 +12°C° 0 mm 2 mps 752 mmHg 91%
    23:00 +10°C° 0 mm 2 mps 752 mmHg 93%

    26 October, Saturday

    Time Temperature Precipitation Wind Pressure Humidity
    00:00 +10°C° 0 mm 3 mps 752 mmHg 93%
    01:00 +10°C° 0 mm 3 mps 752 mmHg 93%
    02:00 +10°C° 0 mm 3 mps 752 mmHg 94%
    03:00 +10°C° 0 mm 3 mps 752 mmHg 94%
    04:00 +10°C° 0 mm 3 mps 752 mmHg 94%
    05:00 +9°C° 0 mm 3 mps 752 mmHg 94%
    06:00 +10°C° 0 mm 4 mps 752 mmHg 93%
    07:00 +10°C° 0 mm 4 mps 752 mmHg 91%
    08:00 +11°C° 0 mm 4 mps 752 mmHg 90%
    09:00 +12°C° 0 mm 4 mps 752 mmHg 84%
    10:00 +14°C° 0 mm 5 mps 752 mmHg 78%
    11:00 +15°C° 0 mm 5 mps 752 mmHg 72%
    12:00 +15°C° 0 mm 5 mps 752 mmHg 72%
    13:00 +16°C° 0 mm 5 mps 752 mmHg 71%
    14:00 +16°C° 0 mm 5 mps 752 mmHg 71%
    15:00 +15°C° 0 mm 4 mps 752 mmHg 77%
    16:00 +14°C° 0 mm 3 mps 752 mmHg 82%
    17:00 +12°C° 0 mm 3 mps 752 mmHg 88%
    18:00 +13°C° 0 mm 2 mps 752 mmHg 90%
    19:00 +12°C° 0 mm 2 mps 752 mmHg 92%
    20:00 +12°C° 0 mm 2 mps 752 mmHg 94%
    21:00 +10°C° 0 mm 2 mps 752 mmHg 94%
    22:00 +11°C° 0 mm 1 mps 752 mmHg 95%
    23:00 +11°C° 0 mm 1 mps 752 mmHg 95%

    27 October, Sunday

    Time Temperature Precipitation Wind Pressure Humidity
    00:00 +10°C° 0 mm 1 mps 752 mmHg 95%
    01:00 +10°C° 0 mm 1 mps 752 mmHg 95%
    02:00 +10°C° 0 mm 1 mps 752 mmHg 96%
    03:00 +9°C° 0 mm 2 mps 752 mmHg 96%
    04:00 +9°C° 0 mm 2 mps 751 mmHg 96%
    05:00 +9°C° 0 mm 2 mps 751 mmHg 97%
    06:00 +9°C° 0 mm 2 mps 751 mmHg 95%
    07:00 +10°C° 0 mm 3 mps 751 mmHg 94%
    08:00 +10°C° 0 mm 3 mps 751 mmHg 93%
    09:00 +12°C° 0 mm 4 mps 750 mmHg 86%
    10:00 +13°C° 0 mm 5 mps 750 mmHg 80%
    11:00 +15°C° 0 mm 5 mps 750 mmHg 73%
    12:00 +15°C° 0 mm 6 mps 749 mmHg 71%
    13:00 +16°C° 0 mm 6 mps 749 mmHg 68%
    14:00 +16°C° 0 mm 6 mps 748 mmHg 66%
    15:00 +15°C° 0 mm 6 mps 748 mmHg 68%
    16:00 +14°C° 0 mm 6 mps 747 mmHg 70%
    17:00 +13°C° 0 mm 5 mps 747 mmHg 72%
    18:00 +12°C° 0 mm 5 mps 747 mmHg 73%
    19:00 +12°C° 0 mm 5 mps 747 mmHg 73%
    20:00 +12°C° 0 mm 5 mps 747 mmHg 74%
    21:00 +10°C° 0 mm 5 mps 746 mmHg 76%
    22:00 +10°C° 0 mm 5 mps 746 mmHg 78%
    23:00 +10°C° 0 mm 4 mps 746 mmHg 80%
    Show more